Home > Weather > Gatineau > Past weeks

Flag for Canada Weather for the Past 2 Weeks in Gatineau, Quebec, Canada

Now
46 °F

Partly sunny.


Feels Like: 46 °F
Forecast: 32 / 59 °F
Wind: No wind

Location: Ottawa Int'L. Ont.

Current Time: Apr 29, 2016 at 10:05:40 PM

Latest Report: Apr 29, 2016 at 9:00 PM


Visibility: 15 mi

Pressure: 30.16 "Hg

Humidity: 34%

Dew Point: 19 °F

Location of GatineauLocation

Historic Weather in Gatineau — Graph

°F

Gatineau Temperature Yesterday

Maximum temperature yesterday: 50 °F (at 5:00 PM)
Minimum temperature yesterday: 30 °F (at 5:00 AM)
Average temperature yesterday: 38 °F

High & Low Weather Summary for the Past Weeks

 TemperatureHumidityPressure
High73 °F (Apr 17, 4:00 PM)100% (Apr 18, 11:00 PM)30.58 "Hg (Apr 18, 11:00 PM)
Low27 °F (Apr 27, 6:00 AM)14% (Apr 20, 4:00 PM)29.78 "Hg (Apr 22, 7:00 AM)
Average46 °F42%30.17 "Hg
* Reported Apr 14 8:00 PM — Apr 29 8:00 PM, Gatineau, Weather by CustomWeather, © 2016

Note: Actual official high and low records may vary slightly from our data, if they occured in-between our weather recording intervals... More about our weather records

Advertising

Gatineau Weather History for the Previous 24 Hours

Scroll right to see more
 ConditionsComfort  
Time TempWeatherWind HumidityBarometerVisibility
8:00 PM
Fri, Apr 29
52 °FPartly sunny.3 mph26%30.12 "Hg15 mi
7:00 PM52 °FPartly sunny.7 mph26%30.10 "Hg15 mi
6:00 PM54 °FPartly sunny.5 mph24%30.11 "Hg15 mi
5:00 PM54 °FBroken clouds.6 mph24%30.11 "Hg15 mi
4:00 PM55 °FBroken clouds.6 mph21%30.11 "Hg15 mi
3:00 PM54 °FPartly sunny.8 mph22%30.12 "Hg15 mi
2:00 PM52 °FPartly sunny.7 mph24%30.14 "Hg15 mi
1:00 PM50 °FPartly sunny.9 mph28%30.16 "Hg15 mi
12:00 PM48 °FScattered clouds.12 mph29%30.18 "Hg15 mi
11:00 AM46 °FScattered clouds.12 mph32%30.19 "Hg15 mi
10:00 AM43 °FScattered clouds.14 mph34%30.20 "Hg15 mi
9:00 AM39 °FPartly sunny.12 mph39%30.21 "Hg15 mi
8:00 AM36 °FScattered clouds.14 mph44%30.20 "Hg15 mi
7:00 AM32 °FPartly sunny.10 mph55%30.19 "Hg15 mi
6:00 AM28 °FPartly cloudy.10 mph69%30.18 "Hg15 mi
5:00 AM28 °FPassing clouds.9 mph64%30.18 "Hg15 mi
4:00 AM30 °FPassing clouds.10 mph59%30.16 "Hg15 mi
3:00 AM32 °FPassing clouds.8 mph60%30.16 "Hg15 mi
2:00 AM32 °FPassing clouds.9 mph55%30.16 "Hg15 mi
1:00 AM34 °FClear.6 mph51%30.16 "Hg15 mi
12:00 AM36 °FClear.6 mph48%30.16 "Hg15 mi
11:00 PM
Thu, Apr 28
37 °FClear.7 mph45%30.16 "Hg15 mi
10:00 PM37 °FPassing clouds.8 mph45%30.16 "Hg15 mi
Weather by CustomWeather, © 2016

See weather overviewHow to use our weather pages